Zurück zum Katalog

HAWK-9A

AktivMilitärVLEO
NORAD 59446·PAYLOAD·🇺🇸 United States

Gestartet Apr 7, 2024 von Cape Canaveral Space Force Station

Loading…

Nächste Überflüge (nächste 24 Stunden)

TLE

AktuellSource: Space-Track

Epoche: Sep 14, 2026, 03:45 UTC

1 59446U 24066E   26257.15669937  .00001168  00000-0  11271-3 0  9995
2 59446  45.6093 177.2923 0002326 167.8171 192.2767 14.99366803133181

Verfolge HAWK-9A in Echtzeit mit AllMySat

Download on the App Store